Location: Celina Division
(33.3022°N, 96.7580°W)
Time: 00:46:48
(UTC+00:00)

NOAA 18 - Pass Details

Date: 11 April 2023
Orbit: 838 x 860 km, 98.9° (Epoch: 07 June)

Event Time Altitude Azimuth Distance (km) Brightness Sun altitude
Exits shadow 05:26:48 12° 319° (NW) 2,371 8.0 -46.0°
Drops below altitude 10° 05:27:12 10° 322° (NW) 2,499 8.2 -46.0°
Sets 05:29:55 0° 333° (NNW) 3,439 9.1 -46.2°
